Tracking 35030 objects as of 11-Aug-2026
HD Live streaming from Space Station
objects crossing your sky now

STARLINK-3549

Track STARLINK-3549 now!
10-day predictions
STARLINK-3549 is classified as:


NORAD ID: 51891
Int'l Code: 2022-022AR
Launch date: March 3, 2022
Source: United States (US)
Launch site: AIR FORCE EASTERN TEST RANGE (AFETR)
Your satellite tracking list
Your tracking list is empty




NASA's NSSDC Master Catalog

Two Line Element Set (TLE):
1 51891U 22022AR  26223.39315837 -.00000819  00000-0 -13131-4 0  9999
2 51891  53.1610  14.8630 0001028  82.7257 277.3862 15.34380820246782
Source of the keplerian elements: AFSPC